Location: Newark
(52.4787°S, 179.0532°W)
Time: 07:30:34
(UTC+00:00)

Transit 2A Rocket - Pass Details

Date: 24 November 2019
Orbit: 594 x 909 km, 66.7° (Epoch: 12 December)

Event Time Altitude Azimuth Distance (km) Brightness Sun altitude
Rises 03:29:14 0° 222° (SW) 3,570 8.8 36.2°
Reaches altitude 10° 03:31:53 10° 216° (SW) 2,629 8.1 35.9°
Maximum altitude 03:37:52 49° 141° (SE) 1,168 6.0 35.0°
Drops below altitude 10° 03:43:37 10° 66° (ENE) 2,533 7.4 34.1°
Sets 03:46:08 0° 60° (ENE) 3,429 8.0 33.7°
